General Aviation Weather

Text Reports

Enter one or more of the following location identifiers separated by a space:

Zip Code, Four-Character ICAO or Three-Character IATA airport codes.

METAR - Aviation Routine Weather Report
KGPM - Grand Prairie, Texas
Updated at 4:50 PM GMT on July 30, 2014 (11:50 AM CDT):
METAR KGPM 301650Z 09009KT 10 SKC 26/22 A3007
TAF - Terminal Area Forecast
KGPM - Grand Prairie, Texas
Updated at 4:50 PM GMT on July 30, 2014 (11:50 AM CDT):
No TAF is currently available for this location.
Decoded:
No decoded TAF is available.
PIREP - Pilot Weather Report
KGPM - Grand Prairie, Texas
Updated at 4:50 PM GMT on July 30, 2014 (11:50 AM CDT):
No PIREP is currently available for this location.
AIRMET - Airmens Meteorological Information
KGPM - Grand Prairie, Texas
Updated at 4:50 PM GMT on July 30, 2014 (11:50 AM CDT):
No AIRMET is currently available for this location.
SIGMET - Significant Meteorological Information
KGPM - Grand Prairie, Texas
Updated at 4:50 PM GMT on July 30, 2014 (11:50 AM CDT):
No SIGMET is currently available for this location.
NOTAM - Notice to Airmen
KGPM - Grand Prairie, Texas
Updated at 4:50 PM GMT on July 30, 2014 (11:50 AM CDT):
No NOTAM is currently available for this location.
Forecast Area
KGPM - Grand Prairie, Texas
Updated at 4:50 PM GMT on July 30, 2014 (11:50 AM CDT):
No NOTAM is currently available for this location.
Aviation Weather Maps